Regional Weather Roundup
Issued by NWS

Home | Current Version | Previous Version | Graphics & Text | Print | Product List | Glossary On
Versions: 1 2 3 4 5 6 7 8 9 10 11 12 13 14 15 16 17 18 19 20 21 22 23 24 25 26 27 28 29 30 31 32 33 34 35 36 37 38 39 40 41 42 43 44 45 46 47 48 49 50
000
ASUS43 KBIS 310410
RWRND

NORTH DAKOTA REGIONAL WEATHER ROUNDUP
NATIONAL WEATHER SERVICE BISMARCK ND
1100 PM CDT MON MAY 30 2016

NOTE: "FAIR" INDICATES FEW OR NO CLOUDS BELOW 12,000 FEET WITH NO
SIGNIFICANT WEATHER AND/OR OBSTRUCTIONS TO VISIBILITY.


NDZ001>003-009>011-017-310500-
NORTHWEST NORTH DAKOTA

CITY           SKY/WX    TMP DP  RH WIND       PRES   REMARKS
WILLISTON      RAIN      53  51  93 W9        29.90F FOG
MINOT          LGT RAIN  58  55  90 NW6       29.87R
$$

NDZ018>021-031>035-040>046-310500-
SOUTHWEST NORTH DAKOTA

CITY           SKY/WX    TMP DP  RH WIND       PRES   REMARKS
BISMARCK       LGT RAIN  56  55  97 W12       29.84R
DICKINSON      PTCLDY    51  48  89 W20       29.91S
GARRISON         N/A     55  53  93 NW7       29.87R
HETTINGER ARPT PTCLDY    50  47  89 NW15      29.94F
$$

NDZ004>008-012>016-024-026-027-054-310500-
NORTHEAST NORTH DAKOTA

CITY           SKY/WX    TMP DP  RH WIND       PRES   REMARKS
GRAND FORKS    RAIN      60  57  89 E8        29.85R
DEVILS LAKE    LGT RAIN  60  54  80 E20G25    29.79F
$$

NDZ022-023-025-028>030-036>039-047>053-310500-
SOUTHEAST NORTH DAKOTA

CITY           SKY/WX    TMP DP  RH WIND       PRES   REMARKS
FARGO          CLOUDY    65  57  75 N20G25    29.73F
JAMESTOWN      TSTM      57  56  96 E13       29.70F
$$





USA.gov is the U.S. government's official web portal to all federal, state and local government web resources and services.